Weather History for Capri, Italy

Change the Weather History Date:

Wednesday, April 24, 2013

  Actual Average Record
Temperature  
Mean Temperature 70 °F -  
Max Temperature 79 °F - - ()
Min Temperature 61 °F - - ()
Cooling Degree Days 5    
Growing Degree Days 20 (Base 50)    
Moisture  
Dew Point 56 °F    
Average Humidity 59    
Maximum Humidity 82    
Minimum Humidity 28    
Precipitation  
Precipitation 0.00 in - - ()
Sea Level Pressure  
Sea Level Pressure 30.25 in    
Wind  
Wind Speed 4 mph ()    
Max Wind Speed 7 mph    
Max Gust Speed -    
Visibility 6.0 miles    
Events      
T = Trace of Precipitation, MM = Missing Value Source: Averaged Metar Reports

Daily Weather History Graph

Daily Weather History Graph

Search for Another Location

Airport:

Trip Planner

Search our weather history database for the weather conditions in past years. The results will help you decide how hot, cold, wet, or windy it might be!

Date:

Astronomy

Apr. 24, 2013 Rise Set
Actual Time 6:11 AM CEST 7:51 PM CEST
Civil Twilight 5:42 AM CEST 8:20 PM CEST
Nautical Twilight 5:07 AM CEST 8:56 PM CEST
Astronomical Twilight 4:30 AM CEST 9:33 PM CEST
Moon 6:35 PM CEST (4/24) 5:04 AM CEST (4/24)
Length of Visible Light 14h 38m
Length of Day
13h 40m
Waxing Gibbous, 97% of the Moon is Illuminated
Apr 24
Waxing Gibbous
Apr 25
Full
May 2
Last Quarter
May 10
New
May 18
First Quarter

Hourly Weather History & Observations

Time (CEST) Temp. Dew Point Humidity Pressure Visibility Wind Dir Wind Speed Gust Speed Precip Events Conditions
12:55 AM 64.4 °F 57.2 °F 77% 30.21 in - North - - N/A   Clear
2:00 AM 63 °F 57 °F 75% 30.22 in 6 mi 4.6 mph - -  
2:55 AM 62.6 °F 57.2 °F 82% 30.21 in - North - - N/A   Clear
3:55 AM 64.4 °F 53.6 °F 68% 30.21 in - North - - N/A   Clear
5:00 AM 65 °F 50 °F 48% 30.22 in 6 mi 6.9 mph - -  
6:55 AM 62.6 °F 55.4 °F 77% 30.21 in - North - - N/A   Clear
7:55 AM 64.4 °F 55.4 °F 73% 30.24 in - North - - N/A   Clear
8:00 AM 64 °F 55 °F 65% 30.25 in 6 mi 6.9 mph - -  
8:55 AM 64.4 °F 57.2 °F 77% 30.24 in - North - - N/A   Clear
9:55 AM 68.0 °F 55.4 °F 64% 30.27 in - North - - N/A   Clear
10:55 AM 69.8 °F 57.2 °F 64% 30.27 in - North - - N/A   Clear
11:00 AM 70 °F 57 °F 55% 30.28 in 6 mi North 6.9 mph - -  
11:55 AM 71.6 °F 60.8 °F 69% 30.30 in - North - - N/A   Clear
12:55 PM 73.4 °F 55.4 °F 53% 30.30 in - North - - N/A   Clear
1:55 PM 77.0 °F 57.2 °F 50% 30.30 in - North - - N/A   Clear
2:00 PM 77 °F 57 °F 40% 30.29 in 6 mi North 5.8 mph - -  
2:55 PM 78.8 °F 57.2 °F 47% 30.30 in - North - - N/A   Clear
3:55 PM 78.8 °F 53.6 °F 42% 30.27 in - North - - N/A   Clear
4:55 PM 78.8 °F 51.8 °F 39% 30.27 in - North - - N/A   Clear
5:00 PM 79 °F 52 °F 28% 30.25 in 6 mi North 5.8 mph - -   Clear
5:55 PM 77.0 °F 55.4 °F 47% 30.21 in - North - - N/A   Clear
6:55 PM 75.2 °F 55.4 °F 50% 30.24 in - North - - N/A   Clear
7:55 PM 73.4 °F 57.2 °F 57% 30.24 in - North - - N/A   Clear
8:00 PM 73 °F 58 °F 49% 30.24 in 6 mi Calm Calm - -   Clear
8:55 PM 71.6 °F 59.0 °F 64% 30.24 in - North - - N/A   Clear
9:55 PM 71.6 °F 57.2 °F 60% 30.24 in - North - - N/A   Clear
10:55 PM 69.8 °F 59.0 °F 68% 30.24 in - North - - N/A   Clear
11:00 PM 70 °F 59 °F 60% 30.26 in 6 mi Calm Calm - -   Clear
11:55 PM 69.8 °F 59.0 °F 68% 30.24 in - North - - N/A   Clear